Flag for France Weather for the Past 2 Weeks in Boulogne-Billancourt, Île-de-France, France

Now
59 °F

Passing clouds.


Feels Like: 58 °F
Forecast: 44 / 74 °F
Wind: 8 mph from Southeast

Location: Paris-Orly

Current Time: May 5, 2016 at 11:26:38 AM

Latest Report: May 5, 2016 at 11:00 AM


Visibility: N/A

Pressure: 30.12 "Hg

Humidity: 48%

Dew Point: 39 °F

Location of Boulogne-BillancourtLocation

Historic Weather in Boulogne-Billancourt — Graph

°F

Boulogne-Billancourt Temperature Yesterday

Maximum temperature yesterday: 64 °F (at 4:30 PM)
Minimum temperature yesterday: 41 °F (at 4:00 AM)
Average temperature yesterday: 54 °F

High & Low Weather Summary for the Past Weeks

 TemperatureHumidityPressure
High72 °F (Apr 21, 5:00 PM)100% (Apr 27, 7:00 AM)30.36 "Hg (Apr 27, 7:00 AM)
Low30 °F (Apr 28, 6:00 AM)30% (May 2, 2:30 PM)29.71 "Hg (Apr 26, 2:30 AM)
Average50 °F67%30.09 "Hg
* Reported Apr 20 10:00 AM — May 5 10:00 AM, Boulogne-Billancourt, Weather by CustomWeather, © 2016

Note: Actual official high and low records may vary slightly from our data, if they occured in-between our weather recording intervals... More about our weather records

Advertising

Boulogne-Billancourt Weather History for the Previous 24 Hours

Scroll right to see more
 ConditionsComfort  
Time TempWeatherWind HumidityBarometerVisibility
10:00 AM
Thu, May 5
55 °FSunny.12 mph47%30.12 "Hg10 mi
9:30 AM54 °FSunny.8 mph54%30.15 "Hg10 mi
9:00 AM52 °FSunny.8 mph54%30.15 "Hg10 mi
8:30 AM50 °FSunny.9 mph58%30.15 "Hg10 mi
8:00 AM48 °FSunny.10 mph58%30.15 "Hg10 mi
7:30 AM46 °FSunny.8 mph62%30.15 "Hg10 mi
7:00 AM46 °FClear.8 mph62%30.15 "Hg10 mi
6:30 AM46 °FClear.8 mph62%30.15 "Hg10 mi
6:00 AM46 °FClear.8 mph66%30.15 "Hg10 mi
5:30 AM46 °FClear.7 mph66%30.15 "Hg10 mi
5:00 AM46 °FClear.7 mph66%30.18 "Hg10 mi
4:30 AM46 °FClear.8 mph66%30.18 "Hg10 mi
4:00 AM48 °FClear.7 mph66%30.18 "Hg10 mi
3:30 AM48 °FClear.8 mph66%30.18 "Hg10 mi
3:00 AM48 °FClear.7 mph66%30.18 "Hg10 mi
2:30 AM48 °FClear.7 mph66%30.21 "Hg10 mi
2:00 AM50 °FClear.7 mph62%30.21 "Hg10 mi
1:30 AM50 °FClear.7 mph62%30.21 "Hg10 mi
1:00 AM52 °FClear.6 mph58%30.21 "Hg10 mi
12:30 AM52 °FClear.3 mph58%30.21 "Hg10 mi
12:00 AM52 °FClear.3 mph58%30.21 "Hg10 mi
11:30 PM
Wed, May 4
54 °FClear.6 mph54%30.24 "Hg10 mi
11:00 PM54 °FClear.5 mph54%30.24 "Hg10 mi
10:30 PM54 °FClear.3 mph58%30.24 "Hg10 mi
10:00 PM55 °FSunny.5 mph55%30.24 "Hg10 mi
9:30 PM57 °FSunny.5 mph48%30.24 "Hg10 mi
9:00 PM59 °FSunny.6 mph45%30.24 "Hg10 mi
8:30 PM61 °FSunny.7 mph39%30.24 "Hg10 mi
8:00 PM61 °FSunny.10 mph42%30.24 "Hg10 mi
7:30 PM63 °FSunny.8 mph39%30.24 "Hg10 mi
7:00 PM63 °FPassing clouds.9 mph39%30.24 "HgN/A
6:30 PM63 °FPassing clouds.9 mph39%30.24 "HgN/A
6:00 PM64 °FSunny.9 mph37%30.24 "Hg10 mi
5:30 PM64 °FPassing clouds.5 mph43%30.27 "HgN/A
5:00 PM63 °FPassing clouds.10 mph42%30.27 "HgN/A
4:30 PM64 °FPassing clouds.7 mph37%30.27 "HgN/A
4:00 PM63 °FSunny.7 mph39%30.30 "Hg10 mi
3:30 PM63 °FSunny.6 mph42%30.30 "Hg10 mi
3:00 PM63 °FPassing clouds.6 mph39%30.30 "HgN/A
2:30 PM63 °FPassing clouds.7 mph39%30.30 "HgN/A
2:00 PM63 °FPassing clouds.9 mph42%30.33 "HgN/A
1:30 PM61 °FSunny.5 mph39%30.33 "Hg10 mi
1:00 PM61 °FPassing clouds.7 mph42%30.33 "HgN/A
12:30 PM61 °FPassing clouds.6 mph48%30.33 "HgN/A
12:00 PM59 °FPassing clouds.7 mph45%30.36 "HgN/A
11:30 AM59 °FPassing clouds.6 mph45%30.36 "HgN/A
11:00 AM59 °FPassing clouds.8 mph48%30.36 "HgN/A
Weather by CustomWeather, © 2016

See weather overviewHow to use our weather pages